Tracking 27126 objects as of 30-Mar-2023
HD Live streaming from Space Station
objects crossing your sky now

OPS 8068

Track OPS 8068 now!
10-day predictions
OPS 8068 is classified as:


NORAD ID: 1580
Int'l Code: 1965-072A
Perigee: 638.9 km
Apogee: 972.6 km
Inclination: 98.3 °
Period: 100.8 minutes
Semi major axis: 7176 km
RCS: 0.631 m2 (medium)
Launch date: September 10, 1965
Source: United States (US)
Launch site: AIR FORCE WESTERN TEST RANGE (AFWTR)
Your satellite tracking list
Your tracking list is empty




NASA's NSSDC Master Catalog

Two Line Element Set (TLE):
1 01580U 65072A   23088.76968797  .00000697  00000-0  22579-3 0  9994
2 01580  98.3280 276.4374 0232541 279.5682  77.9296 14.27945204965216
Source of the keplerian elements: AFSPC